Location: North Runcton
(52.7000°N, 0.4333°E)
Time: 04:35:59
(UTC+00:00)

Cosmos 2341 Rocket - Pass Details

Date: 19 May 2025
Orbit: 966 x 1004 km, 82.9° (Epoch: 13 June)

Event Time Altitude Azimuth Distance (km) Brightness Sun altitude
Rises 21:36:26 0° 348° (NNW) 3,699 8.5 -11.4°
Reaches altitude 10° 21:38:59 10° 345° (NNW) 2,742 7.7 -11.6°
Maximum altitude 21:45:11 66° 265° (W) 1,058 4.3 -12.1°
Enters shadow 21:51:17 10° 185° (S) 2,701 5.8 -12.5°
